Wetbulb
36.83 38.13 38.25 38.39 37.61 36.81 35.68 37.99 33.31 35.78 38.09 42.25 44.94 43.83 46.51 45.11 45.04 45.57 47.37 48.37 48.63 48.80 48.43 48.49 48.35 48.87 49.57 50.01 49.75 49.78 50.05 49.51 49.91 50.09 49.44 49.61 49.89 49.56 48.87 48.68 48.49 47.62 46.81 46.31
36.15 38.77 38.36 37.20 39.19 38.97 38.12 39.05 38.74 39.67 39.33 42.00 43.55 42.21 42.56 42.97 45.77 45.67 45.94 49.49 49.97 49.68 49.34 48.99 49.75 49.84 50.35 50.28 50.35 50.58 50.39 50.25 50.62 49.79 50.40 50.36 49.49 48.49 48.39 48.67 47.81 47.14 46.67 46.24
32.01 35.46 36.21 33.44 38.76 39.82 38.85 40.31 40.31 35.70 41.34 44.25 43.47 43.68 45.66 45.67 44.11 46.79 46.83 46.99 48.78 49.95 50.39 50.72 50.52 50.88 50.39 50.73 51.01 50.63 50.72 50.76 49.93 50.90 51.41 50.13 48.81 48.17 48.23 47.31 46.67 46.87 46.54 46.59
30.04 32.60 26.80 37.78 40.73 41.90 41.12 42.46 42.91 43.34 42.78 43.65 44.03 45.63 46.38 44.64 45.09 45.07 46.34 47.42 47.58 51.10 51.14 51.49 50.75 49.85 51.18 50.11 50.21 50.86 50.57 50.37 50.40 50.93 50.80 48.84 47.84 47.79 47.32 46.70 46.66 47.04 47.15 46.95
30.51 29.29 36.65 39.64 40.84 39.27 38.78 38.69 43.24 42.20 44.28 45.53 46.15 42.02 43.62 45.20 46.68 47.16 47.06 47.56 49.11 49.23 50.99 51.84 50.18 50.90 50.77 49.99 50.62 50.50 50.57 50.38 50.54 50.97 49.93 47.89 47.18 47.17 46.62 46.79 47.10 46.93 47.08 46.45
28.67 27.21 26.45 36.77 41.95 45.97 43.10 36.70 44.09 44.55 44.24 44.53 42.89 38.29 43.62 46.92 47.19 46.87 47.32 47.84 48.14 48.23 47.68 49.52 51.23 51.02 50.02 50.59 50.52 50.01 51.09 50.84 50.97 50.34 49.39 48.26 47.42 46.78 46.95 47.30 47.35 47.24 46.62 45.81
34.14 32.22 33.71 41.14 43.24 42.84 34.65 36.98 43.60 44.17 44.61 43.83 41.66 44.29 46.28 45.33 46.59 47.36 48.26 48.69 47.90 47.11 47.55 49.28 50.80 49.48 50.22 50.71 50.19 51.93 51.81 50.18 48.89 48.89 48.48 48.33 47.06 46.82 47.00 46.72 46.55 45.49 45.56 45.05
33.66 28.77 29.57 43.59 41.91 40.68 41.72 42.49 44.76 44.53 44.95 44.50 44.32 46.12 46.91 47.33 46.76 47.72 47.99 48.12 48.63 47.41 47.05 47.56 48.02 50.16 50.74 49.84 51.92 50.65 48.80 48.89 48.51 47.97 49.02 48.03 46.65 46.47 46.28 45.74 44.61 43.80 43.86 43.57
35.54 37.12 42.97 42.53 41.10 44.32 44.52 44.03 46.23 45.32 45.67 46.38 46.13 45.98 46.74 47.80 47.23 47.70 47.98 47.51 47.40 47.31 47.12 47.20 47.20 48.91 49.64 50.08 48.19 48.29 48.51 48.10 48.01 48.08 47.69 47.44 46.04 45.30 45.10 44.99 44.21 43.63 43.24 42.38
36.87 41.26 41.32 44.40 47.01 47.35 45.47 45.44 47.27 45.55 47.21 47.47 47.56 47.31 47.03 47.61 47.80 47.71 47.32 46.76 46.76 46.61 46.08 46.22 46.95 47.34 47.63 46.91 47.98 48.74 47.74 47.09 47.47 47.54 46.40 45.85 46.05 45.76 44.94 44.18 43.13 43.07 42.45 41.78
41.89 44.20 43.11 43.54 45.00 46.80 47.19 46.58 46.37 46.76 47.53 47.93 47.36 47.62 47.41 46.88 47.18 47.44 47.18 46.66 46.39 46.02 45.57 46.04 46.64 46.55 47.09 47.64 48.39 47.68 47.77 47.62 47.35 47.24 46.63 44.94 44.95 44.92 44.63 44.07 44.14 42.47 41.86 41.73
35.66 43.29 44.40 42.66 45.51 46.23 45.24 45.69 46.65 46.59 46.80 46.10 47.45 47.71 48.01 47.56 47.76 47.06 47.13 46.47 45.99 45.89 45.56 46.20 46.44 46.44 47.96 48.38 48.22 47.87 47.15 47.09 46.73 45.93 44.33 43.76 43.35 43.17 46.87 46.48 46.68 46.09 45.36 42.34
39.20 45.20 46.24 47.28 47.92 47.07 46.03 45.70 46.10 45.85 46.03 46.12 46.62 47.00 47.15 46.73 47.32 48.88 47.40 46.64 46.12 46.41 46.12 46.31 46.23 47.50 47.97 47.81 47.46 47.32 46.87 45.76 45.61 44.76 43.27 42.43 42.16 41.59 40.73 42.82 45.77 45.32 45.70 45.70
42.65 41.63 39.19 41.85 45.13 47.95 46.40 46.89 47.81 46.25 45.77 46.08 46.52 46.52 46.76 46.61 46.58 47.05 47.13 47.77 47.56 46.24 45.91 46.76 46.63 47.52 47.66 47.51 46.80 45.93 45.04 45.93 43.72 42.61 42.36 41.75 41.42 40.84 40.39 39.54 39.13 39.50 43.90 44.08
40.89 42.06 42.08 43.82 45.20 46.85 48.46 47.90 46.75 46.91 47.44 45.52 44.81 45.47 45.73 45.46 45.50 46.44 47.48 47.47 46.58 46.02 46.65 47.47 47.37 47.43 47.50 46.68 45.64 43.96 43.58 42.62 42.18 41.43 41.08 41.49 40.72 40.17 39.69 39.17 38.53 38.32 38.91 42.59
41.69 42.81 43.15 43.93 44.83 45.54 45.75 46.00 45.73 46.29 47.36 47.63 47.58 47.17 44.72 45.83 46.88 46.43 46.61 45.86 45.33 45.80 47.68 48.29 48.19 48.14 46.98 45.46 43.82 42.21 41.83 42.94 42.23 40.76 40.77 40.04 39.47 38.78 38.31 38.05 37.70 37.53 37.12 36.84
41.24 41.15 42.28 42.57 43.78 44.61 45.09 46.30 46.38 46.61 47.28 47.55 47.95 46.61 44.37 44.73 44.25 44.29 44.80 45.31 46.19 46.87 47.40 48.58 48.51 45.81 45.52 44.12 43.03 41.60 41.23 41.68 42.71 39.92 39.78 39.29 38.73 38.22 38.09 37.54 36.83 36.64 37.04 39.18
43.61 43.73 44.24 44.51 43.91 44.07 44.69 45.76 46.73 47.35 47.28 48.24 48.44 48.18 47.02 45.08 45.04 45.07 44.78 44.91 44.25 45.25 46.25 47.12 44.48 43.92 43.00 41.77 41.22 40.56 39.93 39.97 39.21 38.74 39.07 39.00 38.26 38.16 37.54 37.14 36.94 36.84 37.19 38.99
42.94 42.98 43.95 44.51 45.07 45.35 45.63 45.74 46.41 47.40 47.96 48.36 48.11 47.47 48.14 47.28 47.25 47.75 44.06 44.14 44.12 43.89 44.11 41.80 42.69 42.14 40.42 41.65 41.75 40.75 39.99 39.05 38.49 38.64 38.90 40.08 38.46 37.40 36.59 36.98 36.99 36.97 37.23 37.45
42.40 43.45 44.23 44.61 45.59 45.14 44.60 45.77 46.81 47.09 47.79 47.99 47.88 47.39 46.79 47.16 47.13 43.32 43.88 44.42 45.42 44.53 41.07 41.28 40.89 40.55 40.88 42.63 42.48 40.16 39.84 39.39 38.34 37.70 37.97 37.19 37.38 37.83 37.86 38.05 37.79 37.65 37.21 36.77
41.46 42.12 42.47 42.86 43.33 44.54 45.10 45.90 46.17 46.01 47.06 47.36 46.64 46.42 46.48 47.21 42.95 43.23 41.54 40.63 38.40 40.68 40.67 40.79 40.25 39.72 40.42 41.55 40.34 39.21 39.08 38.21 37.64 37.52 38.25 37.48 37.93 37.70 37.24 37.47 37.72 37.78 37.01 36.57
39.48 39.51 40.02 40.19 39.70 41.25 43.49 44.93 46.03 46.16 46.05 45.99 45.61 45.71 43.91 39.92 38.90 37.83 38.74 38.99 38.67 41.55 40.61 39.88 39.42 40.35 41.18 41.81 39.74 39.31 38.70 38.80 38.70 38.66 38.14 37.83 37.45 37.34 37.50 37.65 37.01 37.43 36.81 36.51
37.85 38.83 39.21 39.48 39.33 39.28 40.41 40.15 41.97 43.94 44.21 42.91 42.37 41.29 39.68 39.11 38.80 38.35 35.94 38.10 39.30 39.95 39.09 39.20 41.71 42.71 42.75 40.22 39.88 39.78 39.65 39.29 38.63 38.15 37.85 37.91 37.77 37.52 37.09 36.55 37.18 37.50 36.46 36.46
35.66 36.61 37.28 38.67 38.25 37.65 35.41 34.70 36.02 36.84 37.63 38.28 38.43 38.85 38.44 37.24 37.42 39.32 39.63 39.98 40.26 39.84 39.74 41.11 42.55 42.75 41.49 40.00 39.65 39.31 39.08 38.58 38.11 37.99 38.02 38.67 36.88 36.69 36.53 36.67 35.76 35.66 35.54 35.50
33.44 33.94 35.38 36.28 34.89 33.87 33.38 33.15 33.27 33.36 33.70 34.07 34.59 35.88 37.17 38.17 37.03 37.00 37.78 37.91 38.95 38.53 38.86 40.52 39.98 39.11 37.38 37.11 36.78 36.40 36.11 36.07 35.62 34.94 34.69 34.71 34.38 34.26 34.08 33.64 33.84 34.01 33.91 33.77
31.90 31.97 32.83 33.07 33.53 33.34 32.44 32.57 32.03 32.45 32.33 32.02 32.84 33.89 34.69 35.68 35.96 35.44 35.38 35.28 34.72 35.04 34.26 34.71 34.80 34.87 35.21 35.29 35.04 34.80 34.36 34.28 33.94 34.11 33.68 33.31 32.98 32.36 31.92 31.91 32.14 32.59 32.80 32.69
31.73 32.49 30.80 30.27 31.47 32.20 32.54 32.30 30.83 30.46 31.72 31.39 30.45 31.95 32.38 32.70 33.31 32.82 33.44 32.12 32.23 32.48 32.93 33.48 33.94 34.28 34.16 34.11 33.82 33.63 33.39 33.28 33.92 32.77 32.46 31.84 31.21 30.77 31.04 31.19 31.14 31.24 31.13 31.37
MSLP
1015.10 1014.61 1014.48 1014.30 1013.98 1013.89 1014.01 1013.58 1012.73 1011.03 1009.61 1008.37 1007.07 1007.09 1006.88 1006.87 1006.83 1007.17 1007.42 1007.67 1007.72 1007.97 1008.28 1008.52 1008.88 1009.26 1009.58 1009.91 1010.36 1010.75 1011.37 1011.89 1012.16 1012.60 1013.13 1013.57 1013.96 1014.22 1014.48 1014.76 1014.99 1015.13 1015.25 1015.34
1014.88 1014.38 1014.02 1013.34 1012.49 1012.05 1011.84 1011.57 1010.88 1010.43 1007.57 1007.86 1007.16 1006.98 1006.90 1006.81 1006.86 1007.03 1006.61 1006.58 1006.66 1006.91 1007.32 1007.70 1007.68 1008.08 1008.62 1008.92 1009.22 1009.79 1010.40 1010.79 1011.27 1011.95 1012.44 1012.81 1013.22 1013.63 1014.03 1014.35 1014.63 1014.79 1014.85 1014.89
1014.76 1014.50 1013.89 1012.02 1009.10 1009.66 1009.76 1009.29 1009.02 1008.34 1005.95 1006.54 1006.50 1006.50 1005.99 1005.90 1006.24 1006.08 1005.84 1005.87 1006.00 1005.98 1005.94 1006.21 1006.46 1006.68 1007.28 1007.69 1008.35 1008.89 1009.30 1009.82 1010.37 1011.01 1011.67 1012.16 1012.62 1013.22 1013.64 1014.02 1014.18 1014.37 1014.50 1014.45
1015.35 1014.45 1012.63 1007.74 1007.05 1006.84 1006.83 1006.53 1006.34 1006.03 1005.84 1005.22 1005.39 1005.41 1005.06 1005.14 1005.38 1005.25 1005.06 1004.81 1004.76 1004.74 1004.90 1005.02 1005.22 1005.85 1006.16 1006.92 1007.54 1007.96 1008.31 1008.79 1009.43 1010.13 1010.84 1011.54 1012.27 1012.70 1013.05 1013.42 1013.76 1014.00 1014.13 1014.13
1014.97 1013.72 1010.10 1007.42 1006.72 1006.30 1006.15 1005.36 1005.14 1005.38 1005.05 1004.23 1004.44 1004.98 1004.01 1004.48 1004.26 1004.00 1003.82 1003.78 1003.57 1003.47 1003.64 1003.96 1004.47 1004.49 1005.21 1006.10 1006.57 1007.19 1007.41 1007.78 1008.31 1009.08 1010.02 1010.80 1011.51 1012.02 1012.50 1013.01 1013.24 1013.52 1013.67 1013.78
1014.47 1013.18 1010.20 1006.53 1004.66 1004.35 1005.02 1003.88 1004.10 1003.74 1003.53 1003.48 1003.88 1004.43 1003.66 1002.95 1002.98 1003.04 1003.00 1002.87 1003.01 1002.90 1002.93 1003.36 1003.35 1003.63 1004.43 1004.92 1005.52 1005.91 1005.95 1006.63 1007.38 1008.10 1009.04 1009.94 1010.61 1011.36 1011.86 1012.28 1012.63 1013.01 1013.30 1013.36
1012.55 1011.30 1007.90 1006.00 1004.76 1004.74 1004.82 1004.25 1002.93 1002.87 1002.77 1002.69 1003.30 1003.08 1002.20 1002.30 1002.38 1002.40 1002.43 1002.27 1002.29 1002.44 1002.48 1002.05 1002.32 1003.06 1003.60 1003.95 1004.14 1004.04 1005.28 1006.08 1006.82 1007.52 1008.30 1009.14 1010.20 1010.91 1011.41 1011.97 1012.40 1012.76 1012.99 1013.11
1011.16 1010.28 1007.51 1005.07 1004.89 1004.44 1004.15 1002.97 1002.96 1002.70 1002.38 1002.42 1002.62 1002.52 1002.31 1002.07 1002.16 1002.37 1002.41 1002.27 1002.16 1002.23 1002.15 1002.13 1002.22 1002.48 1002.78 1002.94 1002.74 1003.75 1004.59 1005.49 1006.32 1007.06 1007.95 1008.97 1009.91 1010.62 1011.17 1011.73 1012.21 1012.51 1012.78 1012.79
1008.26 1005.72 1005.57 1004.17 1004.46 1003.95 1003.78 1003.87 1003.20 1002.68 1002.11 1002.22 1002.27 1002.30 1002.27 1002.22 1002.27 1002.18 1002.21 1002.12 1002.04 1002.13 1002.03 1001.97 1002.02 1002.20 1002.31 1001.99 1002.84 1003.59 1004.51 1005.28 1006.03 1006.80 1007.66 1008.50 1009.48 1010.27 1011.02 1011.46 1011.80 1012.24 1012.33 1012.40
1007.81 1005.60 1004.86 1004.34 1004.07 1003.89 1003.44 1003.32 1002.66 1002.12 1002.10 1002.04 1002.25 1002.26 1002.23 1002.34 1002.32 1002.24 1002.02 1002.03 1001.93 1002.07 1002.11 1002.02 1002.03 1002.01 1001.95 1002.18 1002.59 1003.33 1004.23 1005.05 1005.78 1006.65 1007.52 1008.34 1009.16 1009.84 1010.44 1010.97 1011.37 1011.60 1011.74 1012.14
1006.47 1005.40 1004.96 1004.22 1003.70 1003.24 1002.94 1002.55 1002.34 1001.78 1001.77 1001.63 1001.77 1001.97 1001.88 1002.05 1002.13 1002.27 1002.11 1001.79 1001.87 1002.02 1002.06 1001.94 1002.03 1002.13 1002.14 1002.30 1002.71 1003.42 1004.08 1004.87 1005.67 1006.48 1007.30 1008.25 1008.90 1009.25 1009.71 1010.05 1010.38 1010.68 1011.03 1011.61
1008.54 1007.62 1005.50 1004.58 1003.83 1003.49 1003.44 1002.80 1001.83 1001.62 1001.38 1001.06 1001.32 1001.40 1001.25 1001.35 1001.38 1001.56 1001.61 1001.49 1001.65 1001.62 1001.71 1001.63 1001.91 1002.06 1002.18 1002.44 1002.80 1003.42 1004.26 1004.97 1005.72 1006.51 1007.27 1007.95 1008.63 1009.26 1009.46 1009.59 1009.83 1010.02 1010.52 1011.05
1008.23 1007.30 1006.21 1005.28 1004.25 1003.48 1003.29 1002.58 1001.94 1001.54 1001.09 1000.89 1000.66 1000.88 1000.84 1000.84 1000.85 1000.72 1001.02 1001.15 1001.25 1000.98 1000.98 1001.52 1001.82 1001.78 1001.77 1002.22 1002.62 1003.15 1003.95 1004.83 1005.63 1006.42 1007.26 1008.06 1008.66 1009.14 1009.54 1009.80 1009.83 1010.16 1010.60 1010.90
1006.70 1006.01 1005.20 1004.61 1003.94 1002.88 1002.70 1002.37 1001.87 1001.34 1001.07 1000.79 1000.45 1000.12 1000.31 1000.41 1000.41 1000.51 1000.54 1000.29 1000.24 1000.40 1000.74 1001.12 1001.45 1001.70 1001.75 1001.98 1002.31 1002.87 1003.56 1004.31 1005.28 1006.15 1006.83 1007.50 1008.09 1008.65 1008.99 1009.46 1009.94 1010.29 1010.35 1010.44
1005.81 1004.68 1004.71 1003.68 1002.82 1002.85 1002.26 1001.76 1001.19 1000.80 1000.68 1000.39 1000.08 1000.02 999.93 999.97 999.95 999.92 999.61 999.67 999.91 1000.12 1000.42 1000.66 1000.85 1001.08 1001.29 1001.62 1002.07 1002.68 1003.43 1004.27 1004.89 1005.64 1006.32 1006.96 1007.61 1008.11 1008.54 1009.04 1009.49 1009.81 1010.14 1010.25
1003.81 1002.98 1002.76 1002.81 1002.33 1001.67 1001.47 1001.00 1000.72 1000.47 1000.30 999.83 999.66 999.33 999.28 998.84 998.67 998.76 998.66 998.94 999.67 999.71 999.53 1000.04 1000.17 1000.22 1000.91 1001.50 1002.03 1002.65 1003.17 1003.74 1004.57 1005.44 1006.26 1006.92 1007.41 1007.93 1008.40 1008.78 1009.22 1009.59 1009.89 1010.15
1002.70 1001.44 1000.83 1000.69 1000.42 1000.20 999.98 999.90 999.91 999.67 999.61 999.07 998.56 998.57 998.61 998.36 998.30 998.10 998.00 998.32 998.36 998.27 998.49 999.11 999.36 1000.02 1000.60 1001.14 1001.72 1002.53 1003.29 1004.05 1004.68 1005.50 1006.02 1006.51 1007.14 1007.77 1008.21 1008.61 1009.11 1009.32 1009.28 1009.19
1000.15 1000.13 999.89 999.97 999.26 998.95 998.88 998.64 998.09 997.98 997.86 997.79 997.88 997.75 997.44 997.69 997.72 997.38 997.27 997.50 997.93 998.26 998.48 998.66 999.21 999.90 1000.53 1001.20 1001.97 1002.83 1003.59 1004.26 1004.89 1005.38 1005.86 1006.48 1006.93 1007.30 1007.77 1008.24 1008.54 1009.03 1009.32 1009.27
999.15 999.05 998.42 998.17 997.87 997.68 997.64 997.47 997.28 997.09 996.92 996.72 996.79 996.68 996.49 996.38 996.39 996.53 996.72 997.30 997.80 998.31 998.28 998.77 999.34 999.99 1000.70 1001.36 1002.09 1002.92 1003.66 1004.34 1004.87 1005.23 1005.62 1006.17 1006.76 1007.28 1007.67 1007.93 1008.07 1008.28 1008.66 1009.03
997.52 997.60 997.43 996.92 996.55 996.52 996.25 995.96 995.88 995.58 995.21 995.18 995.32 995.52 995.54 995.60 995.93 996.16 996.30 996.79 996.72 997.04 997.84 998.61 999.08 999.82 1000.44 1001.18 1001.83 1002.66 1003.39 1004.09 1004.63 1005.25 1005.71 1006.17 1006.64 1007.03 1007.40 1008.28 1008.17 1008.07 1008.43 1008.50
995.91 995.71 995.78 995.56 995.35 994.86 994.66 994.54 994.51 994.62 993.82 994.02 994.54 994.35 994.46 994.60 995.09 995.39 996.54 997.07 997.28 997.46 997.95 998.91 999.61 1000.41 1001.04 1001.75 1002.36 1002.88 1003.50 1004.05 1004.54 1005.05 1005.61 1006.05 1006.38 1006.80 1007.29 1008.23 1008.49 1007.98 1008.18 1008.07
996.71 996.19 995.58 995.26 994.74 993.89 993.57 993.69 993.65 993.16 992.94 993.21 993.31 993.22 993.78 994.87 995.41 995.97 996.18 996.70 997.75 997.84 998.39 999.18 999.83 1000.22 1001.34 1001.98 1002.80 1003.09 1003.51 1003.82 1004.52 1005.17 1005.79 1006.14 1006.65 1007.13 1007.36 1007.64 1007.88 1007.88 1007.96 1007.75
996.58 995.65 994.80 994.31 994.17 993.62 993.10 993.06 992.33 991.82 991.99 992.22 992.45 992.58 993.58 994.63 995.41 995.81 996.71 997.33 997.72 998.36 998.62 999.69 1000.30 1001.17 1001.77 1002.49 1003.31 1003.82 1003.87 1004.24 1004.78 1005.36 1006.13 1006.54 1007.03 1007.29 1007.46 1007.45 1007.62 1007.75 1007.70 1007.92
996.57 996.04 995.32 994.47 993.62 993.51 993.56 993.66 993.10 992.92 992.99 993.08 993.48 993.64 993.88 994.82 996.16 996.52 996.80 997.96 998.59 998.85 999.58 1000.74 1001.51 1002.19 1002.38 1003.32 1003.93 1004.19 1004.55 1004.99 1005.27 1005.98 1006.36 1006.78 1007.13 1007.47 1007.45 1007.65 1007.72 1007.35 1007.34 1007.67
997.97 997.38 996.66 996.20 995.38 995.44 995.42 995.22 995.15 995.32 995.05 995.36 996.04 995.42 995.57 996.23 996.84 997.94 998.03 998.96 999.64 1000.17 1001.06 1001.53 1002.21 1003.35 1003.88 1004.03 1003.99 1004.41 1005.08 1005.75 1006.18 1006.52 1006.70 1006.92 1007.21 1007.34 1007.70 1007.92 1007.63 1007.42 1007.46 1007.77
999.15 998.65 998.26 997.82 997.47 996.99 996.87 996.62 996.74 996.91 996.53 997.07 997.52 997.31 997.91 998.45 998.92 999.15 999.73 1000.39 1001.07 1001.80 1002.74 1002.98 1003.44 1003.93 1004.42 1005.12 1005.47 1005.47 1005.65 1006.15 1006.60 1006.78 1006.95 1007.07 1007.35 1007.75 1007.91 1007.93 1007.94 1007.96 1008.00 1007.72
1000.39 999.97 999.62 999.24 998.98 998.91 998.81 998.56 998.37 998.39 998.36 999.03 999.11 999.52 999.75 1000.05 1000.70 1001.06 1001.47 1001.98 1002.54 1003.15 1003.69 1004.36 1004.91 1005.13 1005.56 1005.85 1005.97 1006.11 1006.24 1006.45 1006.63 1007.14 1007.35 1007.55 1007.63 1007.85 1007.86 1007.84 1008.08 1007.90 1007.74 1007.54
Wind_Speed
8 8 5 8 8 11 16 19 12 7 25 21 21 6 7 5 7 9 10 11 13 14 12 13 11 11 10 11 11 11 12 11 13 11 9 8 8 8 7 5 5 5 4 5
13 11 12 18 17 15 18 20 22 26 33 6 10 7 8 11 7 9 11 14 15 14 13 14 16 14 13 13 14 12 13 14 12 10 10 9 8 8 7 5 5 4 5 5
12 4 8 15 22 21 12 16 16 22 24 17 17 15 20 16 9 11 11 11 12 15 17 17 16 15 16 15 12 14 15 14 12 12 12 10 8 7 7 7 5 5 6 4
4 3 12 10 5 11 20 21 26 24 14 14 17 18 18 10 9 11 13 11 12 14 14 15 13 12 13 10 13 15 15 15 13 12 12 9 8 8 6 5 6 5 5 4
7 8 19 28 12 4 7 11 15 16 21 26 20 6 14 5 10 14 10 10 13 12 13 15 12 16 13 13 15 15 17 16 15 14 12 10 9 8 6 5 5 5 3 3
3 8 13 3 10 19 9 23 11 17 20 20 7 9 12 15 11 11 11 8 8 10 8 9 14 12 15 16 16 18 19 17 14 13 13 12 9 8 5 4 5 4 4 4
15 15 12 8 8 2 8 8 3 5 11 10 8 11 11 3 8 8 7 6 2 7 9 14 11 11 15 15 18 20 13 11 10 11 12 10 8 5 6 6 4 4 4 4
11 10 28 5 2 20 6 5 2 2 2 3 3 5 9 8 7 6 8 7 6 5 7 7 7 11 15 16 18 10 10 11 11 11 9 7 9 6 5 6 5 4 4 3
11 13 9 6 4 6 3 6 16 10 3 3 4 4 4 5 6 6 7 7 4 5 8 7 6 9 12 11 8 9 10 10 10 10 8 8 8 7 4 5 5 5 4 3
5 13 11 15 20 22 9 14 15 8 7 6 7 7 5 5 7 7 7 6 4 5 7 8 5 6 6 7 8 11 10 10 9 11 8 7 5 5 5 5 5 5 4 3
22 20 14 11 11 14 15 9 10 9 8 8 7 9 8 6 7 7 8 6 4 6 7 8 5 5 5 7 8 9 10 9 9 7 8 6 5 6 6 5 5 5 4 4
13 24 15 7 9 9 10 13 11 10 11 6 9 10 9 8 8 6 8 6 6 8 7 7 7 7 6 7 8 10 9 7 7 7 5 5 5 3 2 7 9 8 9 6
26 20 24 22 21 9 10 9 9 8 9 9 8 10 8 7 7 9 6 6 8 11 8 7 7 7 7 8 8 9 10 8 7 7 6 6 4 5 5 3 5 6 8 8
24 25 29 27 18 15 6 8 9 8 8 8 8 5 7 8 6 8 9 11 9 8 7 8 8 8 7 7 8 8 8 11 7 6 6 6 5 5 5 4 4 3 7 7
28 30 26 26 25 22 16 12 14 12 12 12 8 9 7 9 9 10 10 9 7 7 7 9 10 11 9 9 10 10 8 7 8 6 5 6 5 5 5 5 4 4 2 3
27 28 23 22 23 25 21 21 19 17 15 14 14 14 11 12 12 10 10 7 8 9 13 11 12 11 10 10 9 7 7 12 9 6 5 5 5 5 4 4 4 4 3 3
27 25 23 25 23 24 23 19 15 15 18 18 18 14 10 11 9 9 9 8 10 10 10 12 13 10 11 11 12 7 6 6 11 5 5 5 5 5 4 4 4 4 4 5
27 27 26 25 24 20 19 18 17 18 17 18 17 17 16 13 15 11 10 8 5 4 7 7 8 9 9 8 7 6 6 6 6 5 5 5 5 5 5 4 4 4 2 2
30 31 34 31 28 25 22 21 20 19 19 19 18 17 18 16 17 18 7 8 8 8 8 7 12 11 8 9 10 6 7 7 6 5 5 7 5 4 4 4 4 4 4 4
29 29 29 30 29 26 25 24 24 22 21 19 17 17 17 16 13 9 8 12 11 6 11 12 12 11 11 12 13 7 7 7 6 5 5 4 4 4 2 4 4 4 4 4
19 24 28 29 27 28 25 23 23 22 21 17 16 16 16 15 8 8 8 7 3 9 11 13 8 7 6 8 7 6 6 7 6 6 5 4 4 4 3 3 4 4 3 3
8 7 8 8 6 12 15 14 17 16 16 15 14 13 8 6 7 7 5 6 5 14 9 7 7 12 9 12 6 6 6 7 5 5 4 4 4 3 3 4 3 2 3 2
10 10 12 13 9 8 8 8 11 12 13 10 10 8 7 5 5 9 8 5 8 12 9 7 14 17 15 6 5 5 6 7 6 5 4 3 2 2 2 1 1 2 2 2
8 7 6 8 6 3 5 7 9 10 9 10 9 8 11 11 9 8 12 17 20 16 12 11 14 16 13 6 6 6 6 6 5 5 4 4 2 2 2 1 2 1 3 4
10 9 10 8 9 7 7 7 10 10 13 14 12 12 13 8 7 8 11 13 21 15 12 20 20 17 7 6 8 8 6 5 4 3 3 3 3 3 3 3 3 3 3 3
10 8 8 12 9 8 7 8 9 8 10 11 11 11 11 10 12 12 12 15 12 15 9 8 9 9 8 7 6 6 5 4 3 3 4 4 4 4 3 3 3 3 3 3
11 15 10 11 11 10 10 10 10 10 11 10 12 11 12 12 13 13 15 11 10 10 9 8 6 8 5 5 5 4 4 4 6 4 4 3 3 2 1 2 3 3 3 4
Wind_Direction
246 254 227 223 217 209 210 224 217 243 237 245 269 247 304 278 235 205 210 199 199 200 203 200 196 199 198 200 193 186 188 191 203 200 194 192 198 202 203 208 229 232 237 245
260 271 281 274 250 229 216 222 239 252 258 244 263 289 284 273 260 242 214 213 207 203 198 204 202 200 203 202 199 183 191 200 198 188 191 195 191 195 191 208 227 233 242 232
255 268 295 277 242 239 215 215 208 229 247 243 253 249 259 261 224 243 229 213 209 212 204 205 205 197 204 202 190 190 196 198 196 192 194 193 185 181 194 203 205 226 244 235
223 129 237 244 247 212 217 226 221 241 251 240 233 246 250 227 226 234 236 227 221 217 213 212 202 198 202 187 193 195 200 197 196 190 194 182 176 188 190 189 199 213 229 234
203 215 278 284 279 206 181 257 228 229 243 251 247 277 260 217 232 239 243 231 228 215 210 209 197 204 191 189 196 197 205 201 197 188 188 175 183 185 186 182 190 207 204 196
150 211 230 325 232 234 215 267 229 215 234 241 217 227 271 241 246 251 245 233 236 232 212 207 214 194 190 198 197 203 206 202 193 183 182 181 178 177 174 174 191 187 206 210
222 238 270 233 294 33 134 240 308 182 248 248 202 217 243 249 237 217 223 236 252 249 223 212 205 178 201 203 205 211 199 187 175 177 175 170 161 160 165 176 172 183 219 235
214 227 252 153 333 227 216 281 267 273 28 61 260 270 255 249 234 239 254 272 266 265 259 258 211 189 209 208 212 187 162 169 172 163 161 154 158 163 164 163 174 195 219 260
201 235 263 266 203 276 313 267 283 284 284 283 269 252 296 288 261 253 268 282 266 256 280 280 238 208 212 221 156 157 161 168 165 153 153 154 155 163 155 171 174 205 206 213
262 245 241 246 254 264 271 256 259 236 228 245 244 269 281 286 287 300 299 279 258 270 270 275 254 229 230 162 155 156 161 157 153 155 153 152 149 156 162 176 186 202 196 206
262 259 278 271 251 251 269 263 265 272 215 220 226 241 230 238 244 253 262 269 238 250 262 266 238 222 197 169 152 155 155 156 155 152 152 153 170 173 180 200 177 181 185 179
290 306 284 301 313 308 290 270 247 242 276 249 214 235 230 237 244 250 249 255 242 240 238 241 215 215 194 172 159 153 151 150 154 151 155 159 157 156 210 179 173 138 147 163
262 277 282 293 287 282 275 281 282 271 260 262 262 213 230 231 228 245 246 245 239 235 222 210 215 205 185 166 151 152 152 155 154 150 151 153 164 169 177 66 144 156 176 187
277 290 291 286 292 294 298 289 292 285 266 258 255 275 233 236 247 243 244 233 234 227 210 200 193 200 186 165 154 153 148 148 151 155 162 165 168 171 161 159 173 207 222 200
264 265 262 273 278 274 285 284 289 286 292 289 266 246 246 246 238 240 239 238 229 214 216 198 196 201 182 168 160 156 152 157 159 159 157 157 156 156 156 159 179 186 161 189
250 256 256 256 264 270 268 269 264 268 271 276 278 274 235 240 249 240 236 204 170 206 219 202 207 191 173 166 158 154 156 154 151 150 145 146 151 155 166 175 177 186 185 200
244 250 248 251 248 252 257 259 269 272 267 264 262 264 259 260 243 242 244 216 214 216 203 193 206 165 170 166 163 157 146 146 143 139 154 152 150 161 168 168 183 190 201 196
234 246 256 253 262 258 260 253 249 249 251 253 256 262 261 251 254 250 231 219 209 216 199 196 158 157 156 145 134 131 135 143 148 149 138 146 163 164 165 171 175 184 217 238
240 245 250 250 252 257 251 255 257 255 258 258 259 259 260 258 253 254 214 179 190 198 219 152 139 135 130 135 132 136 141 144 145 149 148 151 145 156 170 177 178 186 197 210
239 242 249 252 252 253 259 256 254 250 247 251 253 254 259 268 258 222 191 204 200 181 137 147 144 146 145 146 138 142 142 145 141 138 139 138 144 151 153 235 207 190 205 214
240 236 239 247 250 251 249 247 247 245 247 247 244 247 247 251 220 186 154 169 173 135 125 123 122 118 115 124 121 127 135 138 140 145 144 144 147 151 154 214 237 215 228 229
295 288 266 261 263 265 254 249 242 237 234 235 232 235 228 158 114 81 65 142 133 131 122 118 124 129 130 123 127 131 133 126 123 119 121 130 146 170 187 200 218 253 256 251
286 284 287 283 265 240 262 264 259 234 229 222 216 174 147 143 145 140 127 115 116 108 101 102 127 126 118 104 112 112 108 109 107 102 106 127 157 167 178 149 211 240 280 309
303 321 326 330 353 342 50 13 33 43 62 64 62 93 124 120 82 77 100 107 105 99 104 113 109 103 96 97 93 92 81 78 79 87 106 105 88 52 42 357 322 340 16 357
11 11 10 19 50 54 49 51 62 57 65 66 58 58 61 50 87 105 98 98 93 91 93 97 95 93 86 85 76 76 75 74 83 93 98 91 78 57 39 24 28 21 31 2
26 28 31 31 37 43 50 62 68 61 73 72 62 63 69 72 76 77 78 81 79 84 78 77 75 71 73 76 84 95 102 100 99 93 88 76 67 67 50 32 16 1 334 333
41 43 41 42 35 40 43 49 60 63 65 71 75 62 66 68 68 71 72 69 68 68 67 68 73 88 91 90 88 88 91 89 79 71 62 59 49 36 358 330 305 315 313 299